Hourly Data Report for May 04, 2020

STE-ANNE-DE-BELLEVUE 1
QUEBEC
Current Station Operator: ECCC - MSC

45°25'38.000" N
73°55'45.000" W
39.00 m
702FHL8
71377
WVQ

Download Data

Hourly Data (May 2020)
Hourly Data Report for May 4, 2020
TIME
LST
Temp Definition
°C
Dew Point Definition
°C
Rel Hum Definition
%
Precip. Amount Definition
mm

Wind Dir Definition
10's deg

Wind Spd Definition
km/h
Visibility Definition
km
Stn Press Definition
kPa
Hmdx Definition


Wind Chill Definition


Weather Definition


00:00 10.2 3.7 64 0.0 28 9   99.92     LegendNANA
01:00 9.4 4.0 69 0.0 28 8   99.94     LegendNANA
02:00 8.6 3.9 73 0.0 26 9   99.92     LegendNANA
03:00 8.2 3.8 74 0.0 28 10   99.90     LegendNANA
04:00 7.2 4.3 82 0.0 28 9   99.90     LegendNANA
05:00 8.3 4.0 74 0.0 30 10   99.96     LegendNANA
06:00 8.2 4.3 77 0.0 30 12   100.01     LegendNANA
07:00 7.9 4.1 77 0.0 30 15   100.04     LegendNANA
08:00 8.1 3.3 72 0.0 29 17   100.08     LegendNANA
09:00 8.0 3.2 72 0.0 32 15   100.14     LegendNANA
10:00 7.5 2.2 69 0.0 33 23   100.22     LegendNANA
11:00 8.0 2.0 66 0.0 31 18   100.25     LegendNANA
12:00 8.8 1.5 60 0.0 29 17   100.27     LegendNANA
13:00 9.7 1.6 57 0.0 28 23   100.29     LegendNANA
14:00 9.5 0.3 52 0.0 29 24   100.33     LegendNANA
15:00 10.1 0.5 51 0.0 30 23   100.35     LegendNANA
16:00 10.6 1.0 52 0.0 31 21   100.40     LegendNANA
17:00 10.9 0.3 48 0.0 30 18   100.42     LegendNANA
18:00 10.3 0.3 50 0.0 31 20   100.47     LegendNANA
19:00 8.5 -1.3 50 0.0 31 21   100.57     LegendNANA
20:00 7.7 -1.9 51 0.0 32 21   100.66     LegendNANA
21:00 7.0 -2.7 50 0.0 31 22   100.75     LegendNANA
22:00 6.3 -3.0 52 0.0 31 19   100.76     LegendNANA
23:00 5.8 -3.3 52 0.0 31 16   100.73     LegendNANA

Notes on Data Quality.

Legend

  • E = Estimated
  • M = Missing
  • NA = Not Available*
  • [empty] = Indicates an unobserved value
Date modified: